| time (UTC) | temp C | wind direction | speed KPH | gust KPH | rain 1hr cm | rain 24hr cm | rain mn cm | humidity % | barometer mb |
| 20260506143618 | 25 | 111 | 1.6 | 1.6 | 0.00 | 0.00 | 0.00 | 93 | 1009.3 |
| 20260506143115 | 25 | 128 | 0.0 | 1.6 | 0.00 | 0.00 | 0.00 | 93 | 1009.4 |
| 20260506142614 | 25 | 119 | 0.0 | 0.0 | 0.00 | 0.00 | 0.00 | 93 | 1009.1 |
| 20260506142112 | 25 | 79 | 0.0 | 1.6 | 0.00 | 0.00 | 0.00 | 93 | 1009.2 |
| 20260506141608 | 25 | 131 | 0.0 | 1.6 | 0.00 | 0.00 | 0.00 | 93 | 1009.1 |
| 20260506141107 | 25 | 92 | 0.0 | 0.0 | 0.00 | 0.00 | 0.00 | 93 | 1009.0 |
| 20260506140604 | 25 | 157 | 1.6 | 1.6 | 0.00 | 0.00 | 0.00 | 93 | 1009.0 |
| 20260506135558 | 25 | 89 | 3.2 | 3.2 | 0.00 | 0.00 | 0.00 | 93 | 1008.7 |
| 20260506135054 | 25 | 71 | 0.0 | 0.0 | 0.00 | 0.00 | 0.00 | 94 | 1008.6 |
| 20260506134551 | 25 | 123 | 3.2 | 3.2 | 0.00 | 0.00 | 0.00 | 94 | 1008.6 |
| 20260506134046 | 24 | 163 | 0.0 | 0.0 | 0.00 | 0.00 | 0.00 | 94 | 1008.5 |
| 20260506133544 | 25 | 134 | 0.0 | 1.6 | 0.00 | 0.00 | 0.00 | 94 | 1009.0 |
| 20260506133041 | 25 | 112 | 1.6 | 3.2 | 0.00 | 0.00 | 0.00 | 94 | 1008.7 |
| 20260506132538 | 25 | 146 | 1.6 | 1.6 | 0.00 | 0.00 | 0.00 | 94 | 1008.8 |
| 20260506132035 | 24 | 151 | 0.0 | 0.0 | 0.00 | 0.00 | 0.00 | 95 | 1008.8 |
| 20260506131532 | 24 | 162 | 1.6 | 1.6 | 0.00 | 0.00 | 0.00 | 95 | 1008.7 |
| 20260506131029 | 24 | 163 | 0.0 | 0.0 | 0.00 | 0.00 | 0.00 | 95 | 1008.6 |
| 20260506130526 | 24 | 137 | 0.0 | 1.6 | 0.00 | 0.00 | 0.00 | 95 | 1009.0 |
| 20260506130023 | 24 | 138 | 1.6 | 1.6 | 0.00 | 0.00 | 0.00 | 95 | 1008.8 |
| 20260506125521 | 24 | 133 | 0.0 | 0.0 | 0.00 | 0.00 | 0.00 | 95 | 1008.8 |
| 20260506125019 | 23 | 134 | 0.0 | 1.6 | 0.00 | 0.00 | 0.00 | 95 | 1008.7 |
| 20260506124516 | 23 | 134 | 0.0 | 0.0 | 0.00 | 0.00 | 0.00 | 96 | 1008.9 |
| 20260506124014 | 23 | 134 | 0.0 | 0.0 | 0.00 | 0.00 | 0.00 | 95 | 1008.6 |
| 20260506123512 | 23 | 134 | 0.0 | 0.0 | 0.00 | 0.00 | 0.00 | 95 | 1008.5 |
| 20260506123010 | 23 | 134 | 0.0 | 0.0 | 0.00 | 0.00 | 0.00 | 95 | 1008.5 |
| 20260506122506 | 23 | 134 | 0.0 | 0.0 | 0.00 | 0.00 | 0.00 | 95 | 1008.8 |
| 20260506122004 | 23 | 134 | 0.0 | 0.0 | 0.00 | 0.00 | 0.00 | 95 | 1008.7 |
| 20260506121501 | 23 | 134 | 0.0 | 0.0 | 0.00 | 0.00 | 0.00 | 95 | 1008.7 |
| 20260506120958 | 23 | 134 | 0.0 | 0.0 | 0.00 | 0.00 | 0.00 | 95 | 1008.5 |
| 20260506120455 | 23 | 134 | 0.0 | 0.0 | 0.00 | 0.00 | 0.00 | 95 | 1008.6 |
| 20260506115953 | 23 | 134 | 0.0 | 0.0 | 0.00 | 0.00 | 0.00 | 95 | 1008.7 |
| 20260506115450 | 23 | 134 | 0.0 | 0.0 | 0.00 | 0.00 | 0.00 | 95 | 1008.7 |
| 20260506114949 | 23 | 134 | 0.0 | 0.0 | 0.00 | 0.00 | 0.00 | 95 | 1008.4 |
| 20260506114446 | 23 | 184 | 0.0 | 0.0 | 0.00 | 0.00 | 0.00 | 95 | 1008.3 |
| 20260506113944 | 23 | 184 | 0.0 | 0.0 | 0.00 | 0.00 | 0.00 | 95 | 1008.5 |
| 20260506113442 | 23 | 183 | 0.0 | 0.0 | 0.00 | 0.00 | 0.00 | 95 | 1008.3 |
| 20260506112938 | 23 | 208 | 0.0 | 0.0 | 0.00 | 0.00 | 0.00 | 95 | 1008.1 |
| 20260506112436 | 23 | 208 | 0.0 | 0.0 | 0.00 | 0.00 | 0.00 | 95 | 1008.2 |
| 20260506111933 | 23 | 209 | 0.0 | 0.0 | 0.00 | 0.00 | 0.00 | 94 | 1008.1 |
| 20260506111431 | 23 | 208 | 1.6 | 1.6 | 0.00 | 0.00 | 0.00 | 95 | 1008.1 |
| 20260506110928 | 23 | 209 | 0.0 | 0.0 | 0.00 | 0.00 | 0.00 | 94 | 1008.1 |
| 20260506110426 | 23 | 209 | 0.0 | 0.0 | 0.00 | 0.00 | 0.00 | 94 | 1008.0 |
| 20260506105922 | 23 | 210 | 1.6 | 1.6 | 0.00 | 0.00 | 0.00 | 94 | 1008.0 |
| 20260506105418 | 23 | 220 | 0.0 | 0.0 | 0.00 | 0.00 | 0.00 | 94 | 1008.1 |
| 20260506104916 | 23 | 220 | 0.0 | 1.6 | 0.00 | 0.00 | 0.00 | 94 | 1008.0 |
| 20260506104414 | 23 | 209 | 0.0 | 0.0 | 0.00 | 0.00 | 0.00 | 94 | 1008.0 |
| 20260506103912 | 23 | 216 | 0.0 | 0.0 | 0.00 | 0.00 | 0.00 | 94 | 1007.7 |
| 20260506103409 | 23 | 213 | 1.6 | 1.6 | 0.00 | 0.00 | 0.00 | 94 | 1007.8 |
| 20260506102905 | 23 | 197 | 0.0 | 0.0 | 0.00 | 0.00 | 0.00 | 94 | 1008.0 |
| 20260506102404 | 23 | 194 | 0.0 | 0.0 | 0.00 | 0.00 | 0.00 | 94 | 1007.6 |
| 20260506101901 | 23 | 206 | 1.6 | 3.2 | 0.00 | 0.00 | 0.00 | 94 | 1007.4 |
| 20260506101356 | 23 | 173 | 0.0 | 0.0 | 0.00 | 0.00 | 0.00 | 94 | 1007.4 |
| 20260506100854 | 23 | 150 | 3.2 | 4.8 | 0.00 | 0.00 | 0.00 | 94 | 1007.3 |
| 20260506100353 | 23 | 162 | 0.0 | 0.0 | 0.00 | 0.00 | 0.00 | 94 | 1007.4 |
| 20260506095850 | 23 | 212 | 3.2 | 3.2 | 0.00 | 0.00 | 0.00 | 94 | 1007.3 |
| 20260506095348 | 23 | 176 | 3.2 | 4.8 | 0.00 | 0.00 | 0.00 | 94 | 1007.2 |
| 20260506094844 | 23 | 192 | 1.6 | 3.2 | 0.00 | 0.00 | 0.00 | 94 | 1007.2 |
| 20260506094343 | 23 | 184 | 1.6 | 3.2 | 0.00 | 0.00 | 0.00 | 94 | 1007.1 |
| 20260506093841 | 23 | 193 | 1.6 | 1.6 | 0.00 | 0.00 | 0.00 | 94 | 1006.9 |
| 20260506093338 | 23 | 176 | 1.6 | 3.2 | 0.00 | 0.00 | 0.00 | 94 | 1007.0 |
| 20260506092835 | 23 | 162 | 1.6 | 1.6 | 0.00 | 0.00 | 0.00 | 94 | 1007.1 |
| 20260506092333 | 23 | 106 | 1.6 | 4.8 | 0.00 | 0.00 | 0.00 | 94 | 1007.2 |
| 20260506091830 | 23 | 198 | 0.0 | 1.6 | 0.00 | 0.00 | 0.00 | 94 | 1007.3 |
| 20260506091328 | 23 | 202 | 1.6 | 3.2 | 0.00 | 0.00 | 0.00 | 94 | 1007.0 |
| 20260506090825 | 24 | 192 | 1.6 | 1.6 | 0.00 | 0.00 | 0.00 | 94 | 1007.0 |
| 20260506090322 | 24 | 173 | 1.6 | 1.6 | 0.00 | 0.00 | 0.00 | 94 | 1006.9 |
| 20260506085819 | 24 | 226 | 1.6 | 1.6 | 0.00 | 0.00 | 0.00 | 94 | 1007.1 |
| 20260506085315 | 24 | 166 | 0.0 | 1.6 | 0.00 | 0.00 | 0.00 | 94 | 1007.0 |
| 20260506084812 | 24 | 185 | 3.2 | 3.2 | 0.00 | 0.00 | 0.00 | 94 | 1006.9 |
| 20260506084308 | 23 | 197 | 3.2 | 3.2 | 0.00 | 0.00 | 0.00 | 94 | 1006.9 |
| 20260506083805 | 23 | 131 | 1.6 | 1.6 | 0.00 | 0.00 | 0.00 | 94 | 1007.0 |
| 20260506083303 | 23 | 88 | 3.2 | 3.2 | 0.00 | 0.00 | 0.00 | 94 | 1006.8 |
| 20260506082800 | 23 | 158 | 3.2 | 3.2 | 0.00 | 0.00 | 0.00 | 94 | 1006.8 |
| 20260506082256 | 23 | 169 | 3.2 | 3.2 | 0.00 | 0.00 | 0.00 | 94 | 1006.9 |
| 20260506081753 | 23 | 169 | 4.8 | 8.0 | 0.00 | 0.00 | 0.00 | 94 | 1006.9 |
| 20260506081251 | 23 | 194 | 0.0 | 0.0 | 0.00 | 0.00 | 0.00 | 94 | 1007.0 |
| 20260506080749 | 23 | 205 | 1.6 | 3.2 | 0.00 | 0.00 | 0.00 | 94 | 1007.0 |
| 20260506080244 | 23 | 146 | 1.6 | 1.6 | 0.00 | 0.00 | 0.00 | 95 | 1007.1 |
| 20260506073229 | 23 | 215 | 4.8 | 4.8 | 0.00 | 0.00 | 0.00 | 95 | 1007.3 |
| 20260506072725 | 23 | 170 | 3.2 | 3.2 | 0.00 | 0.00 | 0.00 | 95 | 1007.3 |
| 20260506072223 | 23 | 128 | 3.2 | 3.2 | 0.00 | 0.00 | 0.00 | 95 | 1007.4 |
| 20260506071720 | 23 | 141 | 4.8 | 8.0 | 0.00 | 0.00 | 0.00 | 95 | 1007.2 |
| 20260506071218 | 23 | 146 | 4.8 | 9.7 | 0.00 | 0.00 | 0.00 | 95 | 1007.2 |
| 20260506070715 | 23 | 128 | 3.2 | 3.2 | 0.00 | 0.00 | 0.00 | 95 | 1007.6 |
| 20260506070212 | 23 | 140 | 4.8 | 8.0 | 0.00 | 0.00 | 0.00 | 95 | 1007.5 |
| 20260506062149 | 23 | 190 | 4.8 | 8.0 | 0.00 | 0.00 | 0.00 | 95 | 1007.7 |
| 20260506061645 | 23 | 130 | 11.3 | 14.5 | 0.00 | 0.00 | 0.00 | 95 | 1007.8 |
| 20260506061142 | 23 | 124 | 4.8 | 4.8 | 0.00 | 0.00 | 0.00 | 95 | 1007.8 |
| 20260506060641 | 23 | 173 | 3.2 | 3.2 | 0.00 | 0.00 | 0.00 | 95 | 1007.7 |
| 20260506060138 | 23 | 148 | 4.8 | 4.8 | 0.00 | 0.00 | 0.00 | 94 | 1007.8 |
| 20260506051109 | 23 | 124 | 9.7 | 12.9 | 0.00 | 0.00 | 0.00 | 94 | 1007.7 |
| 20260506050608 | 23 | 182 | 4.8 | 4.8 | 0.00 | 0.00 | 0.00 | 94 | 1007.8 |
| 20260506050104 | 23 | 109 | 8.0 | 12.9 | 0.00 | 0.00 | 0.00 | 94 | 1007.8 |
| 20260506045058 | 24 | 110 | 3.2 | 4.8 | 0.00 | 0.00 | 0.00 | 94 | 1007.6 |
| 20260506044556 | 24 | 155 | 1.6 | 3.2 | 0.00 | 0.00 | 0.00 | 93 | 1008.0 |
| 20260506044052 | 24 | 134 | 1.6 | 3.2 | 0.00 | 0.00 | 0.00 | 93 | 1007.6 |
| 20260506043549 | 24 | 112 | 6.4 | 12.9 | 0.00 | 0.00 | 0.00 | 93 | 1007.5 |
| 20260506043048 | 24 | 125 | 6.4 | 11.3 | 0.00 | 0.00 | 0.00 | 93 | 1007.8 |
| 20260506042547 | 24 | 84 | 3.2 | 8.0 | 0.00 | 0.00 | 0.00 | 93 | 1007.6 |
| 20260506042044 | 24 | 141 | 12.9 | 16.1 | 0.00 | 0.00 | 0.00 | 93 | 1007.6 |
| 20260506041543 | 24 | 149 | 8.0 | 12.9 | 0.00 | 0.00 | 0.00 | 93 | 1007.6 |
| 20260506041039 | 24 | 97 | 11.3 | 14.5 | 0.00 | 0.00 | 0.00 | 93 | 1007.4 |
| 20260506040537 | 24 | 145 | 3.2 | 4.8 | 0.00 | 0.00 | 0.00 | 93 | 1007.1 |
| 20260506040032 | 24 | 167 | 3.2 | 3.2 | 0.00 | 0.00 | 0.00 | 93 | 1007.1 |
| 20260506035530 | 24 | 155 | 6.4 | 12.9 | 0.00 | 0.00 | 0.00 | 93 | 1007.1 |
| 20260506035026 | 25 | 153 | 8.0 | 11.3 | 0.00 | 0.00 | 0.00 | 93 | 1006.8 |
| 20260506034524 | 25 | 122 | 8.0 | 11.3 | 0.00 | 0.00 | 0.00 | 93 | 1006.8 |
| 20260506034021 | 25 | 179 | 3.2 | 4.8 | 0.00 | 0.00 | 0.00 | 93 | 1006.8 |
| 20260506033518 | 25 | 171 | 4.8 | 4.8 | 0.00 | 0.00 | 0.00 | 92 | 1006.8 |
| 20260506033015 | 25 | 154 | 6.4 | 9.7 | 0.00 | 0.00 | 0.00 | 92 | 1006.6 |
| 20260506032513 | 25 | 135 | 11.3 | 17.7 | 0.00 | 0.00 | 0.00 | 92 | 1006.5 |
| 20260506032009 | 25 | 176 | 4.8 | 8.0 | 0.00 | 0.00 | 0.00 | 92 | 1006.5 |
| 20260506031507 | 25 | 111 | 8.0 | 12.9 | 0.00 | 0.00 | 0.00 | 92 | 1006.2 |
| 20260506031003 | 25 | 183 | 4.8 | 8.0 | 0.00 | 0.00 | 0.00 | 92 | 1006.4 |
| 20260506030501 | 25 | 83 | 6.4 | 9.7 | 0.00 | 0.00 | 0.00 | 92 | 1006.3 |
| 20260506025958 | 25 | 164 | 6.4 | 8.0 | 0.00 | 0.00 | 0.00 | 91 | 1006.3 |
| 20260506025455 | 25 | 143 | 8.0 | 12.9 | 0.00 | 0.00 | 0.00 | 91 | 1006.4 |
| 20260506024951 | 25 | 139 | 4.8 | 4.8 | 0.00 | 0.00 | 0.00 | 91 | 1006.4 |
| 20260506024448 | 25 | 154 | 6.4 | 11.3 | 0.00 | 0.00 | 0.00 | 91 | 1006.3 |
| 20260506023944 | 25 | 111 | 8.0 | 11.3 | 0.00 | 0.00 | 0.00 | 91 | 1006.3 |
| 20260506023441 | 25 | 133 | 4.8 | 4.8 | 0.00 | 0.00 | 0.00 | 91 | 1006.2 |
| 20260506022938 | 25 | 92 | 4.8 | 4.8 | 0.00 | 0.00 | 0.00 | 91 | 1006.0 |
| 20260506022436 | 25 | 150 | 4.8 | 8.0 | 0.00 | 0.00 | 0.00 | 91 | 1006.0 |
| 20260506021934 | 25 | 141 | 6.4 | 9.7 | 0.00 | 0.00 | 0.00 | 90 | 1006.2 |
| 20260506021430 | 25 | 133 | 3.2 | 3.2 | 0.00 | 0.00 | 0.00 | 90 | 1006.0 |
| 20260506020927 | 25 | 134 | 4.8 | 4.8 | 0.00 | 0.00 | 0.00 | 90 | 1006.0 |
| 20260506020425 | 25 | 103 | 4.8 | 8.0 | 0.00 | 0.00 | 0.00 | 90 | 1006.1 |
| 20260506015922 | 25 | 132 | 4.8 | 8.0 | 0.00 | 0.00 | 0.00 | 90 | 1005.9 |
| 20260506015420 | 25 | 76 | 6.4 | 8.0 | 0.00 | 0.00 | 0.00 | 90 | 1005.9 |
| 20260506014916 | 25 | 179 | 1.6 | 1.6 | 0.00 | 0.00 | 0.00 | 90 | 1006.0 |
| 20260506014413 | 25 | 134 | 3.2 | 3.2 | 0.00 | 0.00 | 0.00 | 90 | 1006.0 |
| 20260506013910 | 25 | 177 | 3.2 | 3.2 | 0.00 | 0.00 | 0.00 | 89 | 1005.8 |
| 20260506013408 | 25 | 168 | 1.6 | 1.6 | 0.00 | 0.00 | 0.00 | 89 | 1005.9 |
| 20260506012904 | 25 | 163 | 4.8 | 9.7 | 0.00 | 0.00 | 0.00 | 89 | 1005.5 |
| 20260506012401 | 25 | 172 | 6.4 | 9.7 | 0.00 | 0.00 | 0.00 | 90 | 1005.4 |
| 20260506011857 | 25 | 157 | 1.6 | 3.2 | 0.00 | 0.00 | 0.00 | 89 | 1005.3 |
| 20260506011355 | 25 | 113 | 1.6 | 3.2 | 0.00 | 0.00 | 0.00 | 89 | 1005.3 |
| 20260506010852 | 26 | 162 | 3.2 | 3.2 | 0.00 | 0.00 | 0.00 | 89 | 1005.4 |
| 20260506010350 | 26 | 186 | 1.6 | 1.6 | 0.00 | 0.00 | 0.00 | 89 | 1005.1 |
| 20260506005846 | 26 | 123 | 4.8 | 11.3 | 0.00 | 0.00 | 0.00 | 88 | 1005.1 |
| 20260506005343 | 26 | 120 | 4.8 | 8.0 | 0.00 | 0.00 | 0.00 | 88 | 1004.9 |
| 20260506004839 | 26 | 147 | 4.8 | 8.0 | 0.00 | 0.00 | 0.00 | 88 | 1004.7 |
| 20260506004337 | 26 | 124 | 4.8 | 8.0 | 0.00 | 0.00 | 0.00 | 87 | 1004.9 |
| 20260506003833 | 26 | 152 | 3.2 | 3.2 | 0.00 | 0.00 | 0.00 | 87 | 1004.7 |
| 20260506003329 | 26 | 123 | 9.7 | 12.9 | 0.00 | 0.00 | 0.00 | 86 | 1004.6 |
| 20260506002826 | 26 | 205 | 1.6 | 3.2 | 0.00 | 0.00 | 0.00 | 86 | 1004.9 |
| 20260506002322 | 26 | 167 | 14.5 | 17.7 | 0.00 | 0.00 | 0.00 | 86 | 1004.8 |
| 20260506001818 | 27 | 160 | 3.2 | 3.2 | 0.00 | 0.00 | 0.00 | 86 | 1004.7 |
| 20260506001315 | 27 | 177 | 4.8 | 8.0 | 0.00 | 0.00 | 0.00 | 86 | 1004.8 |
| 20260506000812 | 27 | 84 | 4.8 | 8.0 | 0.00 | 0.00 | 0.00 | 86 | 1004.9 |
| 20260506000310 | 27 | 130 | 4.8 | 8.0 | 0.00 | 0.00 | 0.00 | 85 | 1004.7 |
| 20260505235806 | 27 | 131 | 3.2 | 4.8 | 0.00 | 0.00 | 0.00 | 85 | 1005.0 |
| 20260505235305 | 27 | 140 | 6.4 | 12.9 | 0.00 | 0.00 | 0.00 | 85 | 1004.8 |
| 20260505234801 | 27 | 89 | 4.8 | 8.0 | 0.00 | 0.00 | 0.00 | 85 | 1004.9 |
| 20260505234259 | 27 | 110 | 8.0 | 11.3 | 0.00 | 0.00 | 0.00 | 84 | 1004.8 |
| 20260505233755 | 27 | 152 | 3.2 | 4.8 | 0.00 | 0.00 | 0.00 | 84 | 1004.7 |
| 20260505233253 | 27 | 169 | 3.2 | 4.8 | 0.00 | 0.00 | 0.00 | 84 | 1004.7 |
| 20260505232750 | 27 | 212 | 1.6 | 1.6 | 0.00 | 0.00 | 0.00 | 83 | 1004.8 |
| 20260505232248 | 27 | 148 | 12.9 | 16.1 | 0.00 | 0.00 | 0.00 | 83 | 1004.6 |
| 20260505231743 | 27 | 73 | 6.4 | 8.0 | 0.00 | 0.00 | 0.00 | 83 | 1004.6 |
| 20260505231243 | 27 | 177 | 4.8 | 4.8 | 0.00 | 0.00 | 0.00 | 83 | 1004.6 |
| 20260505230741 | 27 | 146 | 4.8 | 8.0 | 0.00 | 0.00 | 0.00 | 83 | 1004.6 |
| 20260505230237 | 27 | 165 | 3.2 | 3.2 | 0.00 | 0.00 | 0.00 | 83 | 1004.8 |
| 20260505225734 | 27 | 168 | 4.8 | 4.8 | 0.00 | 0.00 | 0.00 | 83 | 1004.7 |
| 20260505225231 | 28 | 124 | 9.7 | 14.5 | 0.00 | 0.00 | 0.00 | 82 | 1004.5 |
| 20260505224726 | 28 | 110 | 4.8 | 4.8 | 0.00 | 0.00 | 0.00 | 82 | 1004.5 |
| 20260505224224 | 28 | 171 | 4.8 | 4.8 | 0.00 | 0.00 | 0.00 | 82 | 1004.6 |
| 20260505223721 | 28 | 176 | 1.6 | 3.2 | 0.00 | 0.00 | 0.00 | 82 | 1004.5 |
| 20260505223217 | 28 | 145 | 6.4 | 9.7 | 0.00 | 0.00 | 0.00 | 83 | 1004.7 |
| 20260505222713 | 28 | 136 | 9.7 | 12.9 | 0.00 | 0.00 | 0.00 | 82 | 1004.5 |
| 20260505222210 | 28 | 98 | 4.8 | 8.0 | 0.00 | 0.00 | 0.00 | 82 | 1004.9 |
| 20260505221707 | 28 | 153 | 3.2 | 3.2 | 0.00 | 0.00 | 0.00 | 81 | 1004.6 |
| 20260505221203 | 28 | 134 | 4.8 | 8.0 | 0.00 | 0.00 | 0.00 | 81 | 1004.9 |
| 20260505220701 | 29 | 92 | 6.4 | 9.7 | 0.00 | 0.00 | 0.00 | 79 | 1004.6 |
| 20260505220158 | 29 | 159 | 3.2 | 4.8 | 0.00 | 0.00 | 0.00 | 77 | 1004.5 |
| 20260505215656 | 30 | 203 | 6.4 | 9.7 | 0.00 | 0.00 | 0.00 | 75 | 1004.5 |
| 20260505215154 | 30 | 134 | 16.1 | 22.5 | 0.00 | 0.00 | 0.00 | 74 | 1004.7 |
| 20260505214651 | 30 | 193 | 4.8 | 4.8 | 0.00 | 0.00 | 0.00 | 75 | 1004.6 |
| 20260505214148 | 30 | 177 | 3.2 | 3.2 | 0.00 | 0.00 | 0.00 | 76 | 1004.6 |
| 20260505213646 | 30 | 193 | 4.8 | 8.0 | 0.00 | 0.00 | 0.00 | 76 | 1004.8 |
| 20260505213143 | 30 | 195 | 4.8 | 4.8 | 0.00 | 0.00 | 0.00 | 77 | 1004.8 |
| 20260505212638 | 29 | 194 | 4.8 | 4.8 | 0.00 | 0.00 | 0.00 | 77 | 1004.8 |
| 20260505212136 | 30 | 180 | 4.8 | 9.7 | 0.00 | 0.00 | 0.00 | 77 | 1004.9 |
| 20260505211633 | 30 | 182 | 3.2 | 3.2 | 0.00 | 0.00 | 0.00 | 77 | 1005.2 |
| 20260505211130 | 30 | 178 | 4.8 | 8.0 | 0.00 | 0.00 | 0.00 | 76 | 1005.1 |
| 20260505210627 | 30 | 169 | 8.0 | 11.3 | 0.00 | 0.00 | 0.00 | 78 | 1005.2 |
| 20260505210123 | 30 | 118 | 1.6 | 3.2 | 0.00 | 0.00 | 0.00 | 76 | 1005.2 |
| 20260505205621 | 29 | 185 | 4.8 | 8.0 | 0.00 | 0.00 | 0.00 | 79 | 1005.4 |
| 20260505205119 | 29 | 233 | 1.6 | 1.6 | 0.00 | 0.00 | 0.00 | 78 | 1005.5 |
| 20260505204616 | 30 | 196 | 8.0 | 9.7 | 0.00 | 0.00 | 0.00 | 78 | 1005.8 |
| 20260505204113 | 30 | 64 | 4.8 | 4.8 | 0.00 | 0.00 | 0.00 | 76 | 1005.5 |
| 20260505203609 | 30 | 196 | 3.2 | 4.8 | 0.00 | 0.00 | 0.00 | 77 | 1005.5 |
| 20260505203107 | 29 | 210 | 3.2 | 4.8 | 0.00 | 0.00 | 0.00 | 79 | 1005.7 |
| 20260505202603 | 30 | 199 | 3.2 | 3.2 | 0.00 | 0.00 | 0.00 | 76 | 1005.9 |
| 20260505202059 | 30 | 178 | 3.2 | 3.2 | 0.00 | 0.00 | 0.00 | 78 | 1005.9 |
| 20260505201556 | 30 | 180 | 3.2 | 3.2 | 0.00 | 0.00 | 0.00 | 78 | 1005.9 |
| 20260505201054 | 29 | 182 | 6.4 | 9.7 | 0.00 | 0.00 | 0.00 | 78 | 1006.0 |
| 20260505200551 | 30 | 219 | 8.0 | 12.9 | 0.00 | 0.00 | 0.00 | 77 | 1005.9 |
| 20260505200048 | 29 | 214 | 12.9 | 14.5 | 0.00 | 0.00 | 0.00 | 77 | 1006.1 |
| 20260505195544 | 30 | 202 | 6.4 | 8.0 | 0.00 | 0.00 | 0.00 | 76 | 1006.2 |
| 20260505195042 | 30 | 169 | 4.8 | 8.0 | 0.00 | 0.00 | 0.00 | 76 | 1006.2 |
| 20260505194539 | 30 | 142 | 4.8 | 4.8 | 0.00 | 0.00 | 0.00 | 78 | 1006.4 |
| 20260505194034 | 30 | 179 | 4.8 | 4.8 | 0.00 | 0.00 | 0.00 | 77 | 1006.3 |
| 20260505193531 | 30 | 187 | 3.2 | 3.2 | 0.00 | 0.00 | 0.00 | 77 | 1006.0 |
| 20260505193029 | 28 | 186 | 4.8 | 8.0 | 0.00 | 0.00 | 0.00 | 79 | 1006.3 |
| 20260505192527 | 29 | 208 | 16.1 | 16.1 | 0.00 | 0.00 | 0.00 | 78 | 1006.4 |
| 20260505192024 | 28 | 231 | 8.0 | 11.3 | 0.00 | 0.00 | 0.00 | 80 | 1006.6 |
| 20260505191522 | 28 | 49 | 3.2 | 4.8 | 0.00 | 0.00 | 0.00 | 80 | 1006.4 |
| 20260505191020 | 28 | 205 | 9.7 | 12.9 | 0.00 | 0.00 | 0.00 | 80 | 1006.6 |
| 20260505190514 | 29 | 195 | 8.0 | 9.7 | 0.00 | 0.00 | 0.00 | 79 | 1006.6 |
| 20260505190011 | 28 | 170 | 4.8 | 4.8 | 0.00 | 0.00 | 0.00 | 82 | 1006.9 |
| 20260505185508 | 28 | 225 | 16.1 | 17.7 | 0.00 | 0.00 | 0.00 | 82 | 1007.0 |
| 20260505185004 | 27 | 213 | 14.5 | 16.1 | 0.00 | 0.00 | 0.00 | 82 | 1006.8 |
| 20260505184501 | 27 | 250 | 4.8 | 8.0 | 0.00 | 0.00 | 0.00 | 82 | 1006.9 |
| 20260505183957 | 27 | 235 | 3.2 | 4.8 | 0.00 | 0.00 | 0.00 | 82 | 1007.3 |
| 20260505183455 | 27 | 193 | 8.0 | 9.7 | 0.00 | 0.00 | 0.00 | 82 | 1007.2 |
| 20260505182951 | 28 | 193 | 8.0 | 9.7 | 0.00 | 0.00 | 0.00 | 80 | 1007.3 |
| 20260505182448 | 27 | 224 | 14.5 | 22.5 | 0.00 | 0.00 | 0.00 | 81 | 1007.1 |
| 20260505181944 | 27 | 197 | 3.2 | 4.8 | 0.00 | 0.00 | 0.00 | 82 | 1007.0 |
| 20260505181442 | 27 | 222 | 4.8 | 8.0 | 0.00 | 0.00 | 0.00 | 83 | 1007.4 |
| 20260505180939 | 27 | 197 | 4.8 | 4.8 | 0.00 | 0.00 | 0.00 | 83 | 1007.3 |
| 20260505180435 | 27 | 211 | 8.0 | 11.3 | 0.00 | 0.00 | 0.00 | 83 | 1007.4 |
| 20260505175932 | 27 | 211 | 12.9 | 16.1 | 0.00 | 0.00 | 0.00 | 83 | 1007.2 |
| 20260505175428 | 27 | 193 | 1.6 | 3.2 | 0.00 | 0.00 | 0.00 | 82 | 1007.2 |
| 20260505174924 | 27 | 254 | 8.0 | 12.9 | 0.00 | 0.00 | 0.00 | 83 | 1007.2 |
| 20260505174422 | 27 | 231 | 4.8 | 4.8 | 0.00 | 0.00 | 0.00 | 84 | 1007.4 |
| 20260505173918 | 26 | 203 | 9.7 | 12.9 | 0.00 | 0.00 | 0.00 | 85 | 1007.4 |
| 20260505173414 | 26 | 214 | 4.8 | 4.8 | 0.00 | 0.00 | 0.00 | 86 | 1007.5 |
| 20260505172911 | 26 | 202 | 11.3 | 16.1 | 0.00 | 0.00 | 0.00 | 84 | 1007.5 |
| 20260505172409 | 26 | 224 | 4.8 | 9.7 | 0.00 | 0.00 | 0.00 | 85 | 1007.4 |
| 20260505171909 | 26 | 179 | 9.7 | 14.5 | 0.00 | 0.00 | 0.00 | 85 | 1007.4 |
| 20260505171406 | 26 | 214 | 9.7 | 11.3 | 0.00 | 0.00 | 0.00 | 85 | 1007.6 |
| 20260505170902 | 26 | 220 | 8.0 | 11.3 | 0.00 | 0.00 | 0.00 | 86 | 1007.6 |
| 20260505170359 | 26 | 214 | 14.5 | 16.1 | 0.00 | 0.00 | 0.00 | 85 | 1007.6 |
| 20260505165855 | 26 | 191 | 4.8 | 4.8 | 0.00 | 0.00 | 0.00 | 85 | 1007.9 |
| 20260505165350 | 26 | 219 | 6.4 | 8.0 | 0.00 | 0.00 | 0.00 | 85 | 1007.6 |
| 20260505164846 | 26 | 189 | 4.8 | 4.8 | 0.00 | 0.00 | 0.00 | 87 | 1007.8 |
| 20260505164343 | 26 | 220 | 14.5 | 17.7 | 0.00 | 0.00 | 0.00 | 85 | 1007.6 |
| 20260505163841 | 26 | 215 | 4.8 | 8.0 | 0.00 | 0.00 | 0.00 | 86 | 1007.7 |
| 20260505163340 | 26 | 188 | 9.7 | 16.1 | 0.00 | 0.00 | 0.00 | 86 | 1007.8 |
| 20260505162838 | 26 | 228 | 4.8 | 8.0 | 0.00 | 0.00 | 0.00 | 86 | 1007.6 |
| 20260505162334 | 26 | 239 | 11.3 | 14.5 | 0.00 | 0.00 | 0.00 | 85 | 1007.7 |
| 20260505161831 | 26 | 99 | 8.0 | 9.7 | 0.00 | 0.00 | 0.00 | 86 | 1007.6 |
| 20260505161328 | 26 | 199 | 3.2 | 4.8 | 0.00 | 0.00 | 0.00 | 88 | 1007.8 |
| 20260505160825 | 25 | 218 | 4.8 | 8.0 | 0.00 | 0.00 | 0.00 | 89 | 1007.7 |
| 20260505160323 | 25 | 198 | 8.0 | 11.3 | 0.00 | 0.00 | 0.00 | 88 | 1007.8 |
| 20260505153302 | 25 | 211 | 12.9 | 17.7 | 0.00 | 0.00 | 0.00 | 90 | 1007.6 |
| 20260505152759 | 24 | 231 | 4.8 | 4.8 | 0.00 | 0.00 | 0.00 | 91 | 1007.7 |
| 20260505152255 | 24 | 148 | 8.0 | 11.3 | 0.00 | 0.00 | 0.00 | 91 | 1007.7 |
| 20260505151750 | 24 | 188 | 4.8 | 8.0 | 0.00 | 0.00 | 0.00 | 92 | 1007.9 |
| 20260505151248 | 23 | 211 | 4.8 | 4.8 | 0.00 | 0.00 | 0.00 | 92 | 1007.8 |
| 20260505150744 | 23 | 217 | 11.3 | 16.1 | 0.00 | 0.00 | 0.00 | 92 | 1008.0 |
| 20260505150241 | 23 | 189 | 8.0 | 9.7 | 0.00 | 0.00 | 0.00 | 92 | 1007.9 |